COSMOS 2251 DEB, 35661

Orbit data source: Space-Track

COSMOS 2251 DEB, 35661 is space debris in LEO originally from a launch on Wed, 16 Jun 1993 UTC launched from the Plesetsk Missile And Space Complex (PKMTR). The debris from Iridium 33, an American commercial communications satellite, has been tracked extensively since its accidental collision with the defunct Russian satellite Cosmos 2251 in 2009. This event, occurring at high speed in low Earth orbit (LEO), generated thousands of pieces of space debris, significantly increasing the risk of further collisions. The Iridium 33 debris cloud has impacted space traffic management and orbital debris mitigation strategies, making it a subject of ongoing study in space situational awareness.

Loading next visibility...
Identifier
35661, 1993-036APC
Orbit
LEO
Country
Flag of CISCIS
Related business
Manufacturer
Unknown
Mission
Spacecraft
Bus & Motor
Unknown
Mass
Unknown
Launch date (UTC)
1993-06-16 (33 years ago)
Launch vehicle
Unknown
Launch site
Plesetsk Missile And Space Complex (PKMTR)
Object type
Payload
Rocket body
Debris
Shape & HBR
Unknown shape, 0.1 m
Radar Cross Section
Small (<0.1 m²)

Expand to show TLE details & history
Last TLE update: 3 days ago

TLE from 3 days ago
0 COSMOS 2251 DEB
1 35661U 93036APC 26101.99159374  .00004051  00000-0  41071-3 0  9995
2 35661  74.0124 199.6579 0087152 272.5198  86.6008 14.88446864896569
Epoch: 2026-04-11T23:47Z
TLE epoch observation values (Epoch: 2026-04-11T23:47:53.699Z)
Latitude
0.00003°
Longitude
2.4812°
Altitude
602.382 km
Speed
7.56 km/s
True Right ascension
13h 18m 37s
True Declination
0° 00' 00"
Sunlit
Object was in full shadow at epoch
Visualization orbit readout
Latitude
Unknown
Longitude
Unknown
Altitude
Unknown
Speed
Unknown
Apparent Right ascension
Unknown
Apparent Declination
Unknown
Sunlit
N/A
Visualization observer readout
Local Sidereal Time
03:37:43
Azimuth
Unknown
Elevation
Unknown
Doppler factor
Unknown
Orbital elements
Apogee altitude
661.175 km
Perigee altitude
539.537 km
Semi-major axis
6,978.493 km
Eccentricity
0.00872
Inclination
74.0124°
RAAN
199.6579°
Arg. of periapsis
272.5198°
True anomaly
87.59833°
Mean anomaly
86.6008°
Eccentric anomaly
87.0995°
Mean motion
3.72307 °/min
Orbital period
96.69 mins
BSTAR
0.00041071

Documentation

Showing up to 5 results
|